Time,TemperatureF,DewpointF,PressureIn,WindDirection,WindDirectionDegrees,WindSpeedMPH,WindSpeedGustMPH,Humidity,HourlyPrecipIn,Conditions,Clouds,dailyrainin,SoftwareType,DateUTC
2013-03-17 00:02:00,30.0,22.0,-100.00,NNE,20,13.0,16.0,69,0.00,,,-99.99,,2013-03-17 05:02:00,
2013-03-17 00:12:00,30.0,22.0,-100.00,NNE,20,13.0,16.0,69,0.00,,,-99.99,,2013-03-17 05:12:00,
2013-03-17 00:22:00,30.0,22.0,-100.00,NNE,25,11.0,16.0,70,0.00,,,-99.99,,2013-03-17 05:22:00,
2013-03-17 00:32:00,30.0,21.0,-100.00,NE,35,15.0,18.0,69,0.00,,,-99.99,,2013-03-17 05:32:00,
2013-03-17 00:42:00,30.0,21.0,-100.00,NE,35,15.0,18.0,69,0.00,,,-99.99,,2013-03-17 05:42:00,
2013-03-17 00:52:00,29.0,20.0,-100.00,NNE,30,15.0,20.0,68,0.00,,,-99.99,,2013-03-17 05:52:00,
2013-03-17 01:02:00,29.0,20.0,-100.00,NNE,30,15.0,20.0,68,0.00,,,-99.99,,2013-03-17 06:02:00,
2013-03-17 01:12:00,29.0,20.0,-100.00,NE,45,14.0,19.0,67,0.00,,,-99.99,,2013-03-17 06:12:00,
2013-03-17 01:22:00,29.0,19.0,-100.00,NNE,30,16.0,19.0,65,0.00,,,-99.99,,2013-03-17 06:22:00,
2013-03-17 01:32:00,29.0,19.0,-100.00,NNE,25,14.0,19.0,65,0.00,,,-99.99,,2013-03-17 06:32:00,
2013-03-17 01:42:00,29.0,19.0,-100.00,NNE,25,14.0,19.0,65,0.00,,,-99.99,,2013-03-17 06:42:00,
2013-03-17 01:52:00,29.0,19.0,-100.00,NE,40,14.0,20.0,66,0.00,,,-99.99,,2013-03-17 06:52:00,
2013-03-17 02:01:00,28.0,18.0,-100.00,NE,35,16.0,21.0,65,0.00,,,-99.99,,2013-03-17 07:01:00,
2013-03-17 02:02:00,29.0,19.0,-100.00,NE,40,14.0,20.0,66,0.00,,,-99.99,,2013-03-17 07:02:00,
2013-03-17 02:12:00,28.0,19.0,-100.00,NNE,30,16.0,21.0,66,0.00,,,-99.99,,2013-03-17 07:12:00,
2013-03-17 02:22:00,28.0,18.0,-100.00,NE,35,16.0,21.0,65,0.00,,,-99.99,,2013-03-17 07:22:00,
2013-03-17 02:32:00,28.0,18.0,-100.00,NE,35,16.0,21.0,65,0.00,,,-99.99,,2013-03-17 07:32:00,
2013-03-17 02:42:00,28.0,18.0,-100.00,NE,35,16.0,21.0,65,0.00,,,-99.99,,2013-03-17 07:42:00,
2013-03-17 02:52:00,28.0,18.0,-100.00,NE,35,16.0,21.0,65,0.00,,,-99.99,,2013-03-17 07:52:00,
2013-03-17 04:33:00,27.0,18.0,-100.00,ENE,60,14.0,19.0,68,0.00,,,-99.99,,2013-03-17 09:33:00,
2013-03-17 04:43:00,27.0,18.0,-100.00,ENE,60,14.0,19.0,68,0.00,,,-99.99,,2013-03-17 09:43:00,
2013-03-17 04:53:00,27.0,18.0,-100.00,ENE,65,14.0,18.0,69,0.00,,,-99.99,,2013-03-17 09:53:00,
2013-03-17 05:03:00,27.0,18.0,-100.00,ENE,65,14.0,18.0,69,0.00,,,-99.99,,2013-03-17 10:03:00,
2013-03-17 05:13:00,27.0,18.0,-100.00,ENE,75,12.0,18.0,69,0.00,,,-99.99,,2013-03-17 10:13:00,
2013-03-17 05:23:00,27.0,18.0,-100.00,ENE,75,11.0,19.0,68,0.00,,,-99.99,,2013-03-17 10:23:00,
2013-03-17 05:33:00,27.0,18.0,-100.00,East,80,11.0,15.0,67,0.00,,,-99.99,,2013-03-17 10:33:00,
2013-03-17 05:42:00,27.0,18.0,-100.00,East,80,11.0,15.0,67,0.00,,,-99.99,,2013-03-17 10:42:00,
2013-03-17 05:52:00,26.0,17.0,-100.00,East,95,10.0,17.0,65,0.00,,,-99.99,,2013-03-17 10:52:00,
2013-03-17 06:02:00,26.0,17.0,-100.00,East,95,10.0,17.0,65,0.00,,,-99.99,,2013-03-17 11:02:00,
2013-03-17 06:12:00,26.0,17.0,-100.00,East,90,11.0,16.0,65,0.00,,,-99.99,,2013-03-17 11:12:00,
2013-03-17 06:22:00,26.0,17.0,-100.00,East,100,10.0,16.0,65,0.00,,,-99.99,,2013-03-17 11:22:00,
2013-03-17 06:32:00,26.0,17.0,-100.00,East,90,9.0,14.0,66,0.00,,,-99.99,,2013-03-17 11:32:00,
2013-03-17 06:42:00,26.0,17.0,-100.00,East,90,9.0,14.0,66,0.00,,,-99.99,,2013-03-17 11:42:00,
2013-03-17 06:52:00,26.0,16.0,-100.00,East,95,10.0,16.0,67,0.00,,,-99.99,,2013-03-17 11:52:00,
2013-03-17 07:02:00,26.0,16.0,-100.00,East,95,10.0,16.0,67,0.00,,,-99.99,,2013-03-17 12:02:00,
2013-03-17 07:12:00,26.0,16.0,-100.00,East,85,9.0,17.0,67,0.00,,,-99.99,,2013-03-17 12:12:00,
2013-03-17 07:22:00,26.0,17.0,-100.00,ESE,115,11.0,15.0,67,0.00,,,-99.99,,2013-03-17 12:22:00,
2013-03-17 07:32:00,26.0,16.0,-100.00,East,100,10.0,16.0,67,0.00,,,-99.99,,2013-03-17 12:32:00,
2013-03-17 07:42:00,26.0,16.0,-100.00,East,100,10.0,16.0,67,0.00,,,-99.99,,2013-03-17 12:42:00,
2013-03-17 07:52:00,26.0,15.0,-100.00,ESE,110,12.0,17.0,64,0.00,,,-99.99,,2013-03-17 12:52:00,
2013-03-17 08:02:00,26.0,15.0,-100.00,ESE,110,12.0,17.0,64,0.00,,,-99.99,,2013-03-17 13:02:00,
2013-03-17 08:12:00,26.0,15.0,-100.00,SE,125,12.0,17.0,63,0.00,,,-99.99,,2013-03-17 13:12:00,
2013-03-17 08:22:00,26.0,14.0,-100.00,SE,125,15.0,22.0,60,0.00,,,-99.99,,2013-03-17 13:22:00,
2013-03-17 08:32:00,26.0,13.0,-100.00,ESE,120,13.0,19.0,57,0.00,,,-99.99,,2013-03-17 13:32:00,
2013-03-17 08:42:00,26.0,13.0,-100.00,ESE,120,13.0,19.0,57,0.00,,,-99.99,,2013-03-17 13:42:00,
2013-03-17 08:52:00,26.0,13.0,-100.00,ESE,120,11.0,17.0,57,0.00,,,-99.99,,2013-03-17 13:52:00,
2013-03-17 09:02:00,26.0,13.0,-100.00,ESE,120,11.0,17.0,57,0.00,,,-99.99,,2013-03-17 14:02:00,
2013-03-17 09:12:00,26.0,13.0,-100.00,ESE,115,12.0,18.0,57,0.00,,,-99.99,,2013-03-17 14:12:00,
2013-03-17 09:22:00,27.0,13.0,-100.00,SE,125,15.0,19.0,57,0.00,,,-99.99,,2013-03-17 14:22:00,
2013-03-17 09:32:00,28.0,13.0,-100.00,SE,135,12.0,17.0,54,0.00,,,-99.99,,2013-03-17 14:32:00,
2013-03-17 09:42:00,28.0,13.0,-100.00,SE,135,12.0,17.0,54,0.00,,,-99.99,,2013-03-17 14:42:00,
2013-03-17 09:52:00,28.0,13.0,-100.00,SE,130,14.0,19.0,53,0.00,,,-99.99,,2013-03-17 14:52:00,
2013-03-17 10:02:00,28.0,13.0,-100.00,SE,130,14.0,19.0,53,0.00,,,-99.99,,2013-03-17 15:02:00,
2013-03-17 10:12:00,28.0,14.0,-100.00,SE,130,14.0,19.0,53,0.00,,,-99.99,,2013-03-17 15:12:00,
2013-03-17 10:23:00,29.0,14.0,-100.00,SE,130,13.0,20.0,53,0.00,,,-99.99,,2013-03-17 15:23:00,
2013-03-17 10:33:00,30.0,14.0,-100.00,ESE,120,14.0,19.0,52,0.00,,,-99.99,,2013-03-17 15:33:00,
2013-03-17 10:42:00,30.0,14.0,-100.00,ESE,120,14.0,19.0,52,0.00,,,-99.99,,2013-03-17 15:42:00,
2013-03-17 10:52:00,30.0,14.0,-100.00,SE,140,13.0,20.0,52,0.00,,,-99.99,,2013-03-17 15:52:00,
2013-03-17 11:03:00,30.0,14.0,-100.00,SE,140,13.0,20.0,52,0.00,,,-99.99,,2013-03-17 16:03:00,
2013-03-17 11:12:00,31.0,15.0,-100.00,SE,135,11.0,21.0,52,0.00,,,-99.99,,2013-03-17 16:12:00,
2013-03-17 11:22:00,31.0,15.0,-100.00,SE,130,15.0,18.0,51,0.00,,,-99.99,,2013-03-17 16:22:00,
2013-03-17 11:33:00,32.0,16.0,-100.00,SE,140,13.0,17.0,50,0.00,,,-99.99,,2013-03-17 16:33:00,
2013-03-17 11:42:00,32.0,16.0,-100.00,SE,140,13.0,17.0,50,0.00,,,-99.99,,2013-03-17 16:42:00,
2013-03-17 11:52:00,32.0,16.0,-100.00,South,170,12.0,19.0,50,0.00,,,-99.99,,2013-03-17 16:52:00,
2013-03-17 12:02:00,32.0,16.0,-100.00,South,170,12.0,19.0,50,0.00,,,-99.99,,2013-03-17 17:02:00,
2013-03-17 12:12:00,32.0,16.0,-100.00,SE,135,14.0,18.0,51,0.00,,,-99.99,,2013-03-17 17:12:00,
2013-03-17 12:22:00,33.0,17.0,-100.00,SE,135,11.0,19.0,51,0.00,,,-99.99,,2013-03-17 17:22:00,
2013-03-17 12:33:00,34.0,18.0,-100.00,SE,135,12.0,18.0,51,0.00,,,-99.99,,2013-03-17 17:33:00,
2013-03-17 12:42:00,34.0,18.0,-100.00,SE,135,12.0,18.0,51,0.00,,,-99.99,,2013-03-17 17:42:00,
2013-03-17 12:52:00,33.0,17.0,-100.00,SE,145,11.0,17.0,51,0.00,,,-99.99,,2013-03-17 17:52:00,
2013-03-17 13:02:00,33.0,17.0,-100.00,SE,145,11.0,17.0,51,0.00,,,-99.99,,2013-03-17 18:02:00,
2013-03-17 13:12:00,34.0,18.0,-100.00,ESE,120,12.0,19.0,51,0.00,,,-99.99,,2013-03-17 18:12:00,
2013-03-17 13:22:00,35.0,18.0,-100.00,SSE,160,13.0,19.0,50,0.00,,,-99.99,,2013-03-17 18:22:00,
2013-03-17 13:32:00,35.0,19.0,-100.00,SSE,150,12.0,17.0,50,0.00,,,-99.99,,2013-03-17 18:32:00,
2013-03-17 13:42:00,35.0,19.0,-100.00,SSE,150,12.0,17.0,50,0.00,,,-99.99,,2013-03-17 18:42:00,
2013-03-17 13:52:00,35.0,19.0,-100.00,SE,135,15.0,20.0,50,0.00,,,-99.99,,2013-03-17 18:52:00,
2013-03-17 14:02:00,35.0,19.0,-100.00,SE,135,15.0,20.0,50,0.00,,,-99.99,,2013-03-17 19:02:00,
2013-03-17 14:12:00,36.0,19.0,-100.00,SE,145,12.0,18.0,50,0.00,,,-99.99,,2013-03-17 19:12:00,
2013-03-17 14:22:00,35.0,18.0,-100.00,SE,145,12.0,19.0,50,0.00,,,-99.99,,2013-03-17 19:22:00,
2013-03-17 14:33:00,36.0,20.0,-100.00,SSE,165,11.0,17.0,51,0.00,,,-99.99,,2013-03-17 19:33:00,
2013-03-17 14:41:00,36.0,20.0,-100.00,SSE,165,11.0,17.0,51,0.00,,,-99.99,,2013-03-17 19:41:00,
2013-03-17 14:53:00,35.0,20.0,-100.00,SSE,150,12.0,17.0,52,0.00,,,-99.99,,2013-03-17 19:53:00,
2013-03-17 15:02:00,35.0,20.0,-100.00,SSE,150,12.0,17.0,52,0.00,,,-99.99,,2013-03-17 20:02:00,
2013-03-17 15:12:00,35.0,19.0,-100.00,SE,140,15.0,20.0,52,0.00,,,-99.99,,2013-03-17 20:12:00,
2013-03-17 15:22:00,35.0,20.0,-100.00,SE,135,15.0,23.0,53,0.00,,,-99.99,,2013-03-17 20:22:00,
2013-03-17 15:32:00,36.0,20.0,-100.00,SE,145,12.0,19.0,53,0.00,,,-99.99,,2013-03-17 20:32:00,
2013-03-17 15:42:00,36.0,20.0,-100.00,SE,145,12.0,19.0,53,0.00,,,-99.99,,2013-03-17 20:42:00,
2013-03-17 15:52:00,35.0,20.0,-100.00,SE,130,16.0,21.0,54,0.00,,,-99.99,,2013-03-17 20:52:00,
2013-03-17 16:02:00,35.0,20.0,-100.00,SE,130,16.0,21.0,54,0.00,,,-99.99,,2013-03-17 21:02:00,
2013-03-17 16:12:00,35.0,21.0,-100.00,SE,130,15.0,21.0,55,0.00,,,-99.99,,2013-03-17 21:12:00,
2013-03-17 16:22:00,35.0,21.0,-100.00,SE,140,15.0,21.0,56,0.00,,,-99.99,,2013-03-17 21:22:00,
2013-03-17 16:33:00,35.0,22.0,-100.00,SE,135,13.0,18.0,57,0.00,,,-99.99,,2013-03-17 21:33:00,
2013-03-17 16:42:00,35.0,22.0,-100.00,SE,135,13.0,18.0,57,0.00,,,-99.99,,2013-03-17 21:42:00,
2013-03-17 16:52:00,35.0,22.0,-100.00,SE,130,17.0,21.0,58,0.00,,,-99.99,,2013-03-17 21:52:00,
2013-03-17 17:03:00,35.0,22.0,-100.00,SE,130,17.0,21.0,58,0.00,,,-99.99,,2013-03-17 22:03:00,
2013-03-17 17:12:00,35.0,21.0,-100.00,SE,135,16.0,21.0,58,0.00,,,-99.99,,2013-03-17 22:12:00,
2013-03-17 17:23:00,35.0,22.0,-100.00,SE,130,12.0,19.0,58,0.00,,,-99.99,,2013-03-17 22:23:00,
2013-03-17 17:33:00,35.0,22.0,-100.00,SE,145,12.0,19.0,59,0.00,,,-99.99,,2013-03-17 22:33:00,
2013-03-17 17:42:00,35.0,22.0,-100.00,SE,145,12.0,19.0,59,0.00,,,-99.99,,2013-03-17 22:42:00,
2013-03-17 17:52:00,35.0,22.0,-100.00,SE,135,14.0,19.0,59,0.00,,,-99.99,,2013-03-17 22:52:00,
2013-03-17 18:02:00,35.0,22.0,-100.00,SE,135,14.0,19.0,59,0.00,,,-99.99,,2013-03-17 23:02:00,
2013-03-17 18:12:00,35.0,22.0,-100.00,SE,145,11.0,19.0,60,0.00,,,-99.99,,2013-03-17 23:12:00,
2013-03-17 18:22:00,35.0,22.0,-100.00,SE,145,17.0,23.0,60,0.00,,,-99.99,,2013-03-17 23:22:00,
2013-03-17 18:33:00,34.0,23.0,-100.00,SE,135,19.0,22.0,62,0.00,,,-99.99,,2013-03-17 23:33:00,
2013-03-17 18:42:00,34.0,23.0,-100.00,SE,135,19.0,22.0,62,0.00,,,-99.99,,2013-03-17 23:42:00,
2013-03-17 18:52:00,34.0,23.0,-100.00,SE,145,11.0,22.0,64,0.00,,,-99.99,,2013-03-17 23:52:00,
2013-03-17 19:03:00,34.0,23.0,-100.00,SE,145,11.0,22.0,64,0.00,,,-99.99,,2013-03-18 00:03:00,
2013-03-17 19:12:00,34.0,24.0,-100.00,SE,135,14.0,19.0,65,0.00,,,-99.99,,2013-03-18 00:12:00,
2013-03-17 19:22:00,34.0,24.0,-100.00,SE,135,12.0,17.0,65,0.00,,,-99.99,,2013-03-18 00:22:00,
2013-03-17 19:33:00,34.0,24.0,-100.00,SE,145,9.0,17.0,66,0.00,,,-99.99,,2013-03-18 00:33:00,
2013-03-17 19:42:00,34.0,24.0,-100.00,SE,145,9.0,17.0,66,0.00,,,-99.99,,2013-03-18 00:42:00,
2013-03-17 19:52:00,34.0,24.0,-100.00,SE,135,9.0,12.0,67,0.00,,,-99.99,,2013-03-18 00:52:00,
2013-03-17 20:02:00,34.0,24.0,-100.00,SE,135,9.0,12.0,67,0.00,,,-99.99,,2013-03-18 01:02:00,
2013-03-17 20:12:00,34.0,24.0,-100.00,SE,140,11.0,15.0,67,0.00,,,-99.99,,2013-03-18 01:12:00,
2013-03-17 20:22:00,34.0,24.0,-100.00,SE,130,11.0,16.0,67,0.00,,,-99.99,,2013-03-18 01:22:00,
2013-03-17 20:32:00,34.0,25.0,-100.00,SE,140,10.0,17.0,69,0.00,,,-99.99,,2013-03-18 01:32:00,
2013-03-17 20:42:00,34.0,25.0,-100.00,SE,140,10.0,17.0,69,0.00,,,-99.99,,2013-03-18 01:42:00,
2013-03-17 20:52:00,34.0,25.0,-100.00,SSE,150,8.0,15.0,70,0.00,,,-99.99,,2013-03-18 01:52:00,
2013-03-17 21:02:00,34.0,25.0,-100.00,SSE,150,8.0,15.0,70,0.00,,,-99.99,,2013-03-18 02:02:00,
2013-03-17 21:12:00,33.0,25.0,-100.00,SE,145,11.0,14.0,72,0.00,,,-99.99,,2013-03-18 02:12:00,
2013-03-17 21:22:00,33.0,25.0,-100.00,SE,140,9.0,16.0,72,0.00,,,-99.99,,2013-03-18 02:22:00,
2013-03-17 21:32:00,33.0,25.0,-100.00,SE,145,9.0,19.0,72,0.00,,,-99.99,,2013-03-18 02:32:00,
2013-03-17 21:42:00,33.0,25.0,-100.00,SE,145,9.0,19.0,72,0.00,,,-99.99,,2013-03-18 02:42:00,
2013-03-17 21:52:00,33.0,25.0,-100.00,SSE,160,14.0,21.0,73,0.00,,,-99.99,,2013-03-18 02:52:00,
2013-03-17 22:02:00,33.0,25.0,-100.00,SSE,160,14.0,21.0,73,0.00,,,-99.99,,2013-03-18 03:02:00,
2013-03-17 22:11:00,33.0,24.0,-100.00,SSE,150,12.0,20.0,71,0.00,,,-99.99,,2013-03-18 03:11:00,
2013-03-17 22:22:00,33.0,24.0,-100.00,SSE,150,12.0,22.0,70,0.00,,,-99.99,,2013-03-18 03:22:00,
2013-03-17 22:33:00,33.0,24.0,-100.00,SE,145,15.0,24.0,69,0.00,,,-99.99,,2013-03-18 03:33:00,
2013-03-17 22:42:00,33.0,24.0,-100.00,SE,145,15.0,24.0,69,0.00,,,-99.99,,2013-03-18 03:42:00,
2013-03-17 22:52:00,32.0,24.0,-100.00,SE,140,12.0,18.0,70,0.00,,,-99.99,,2013-03-18 03:52:00,
2013-03-17 23:03:00,32.0,24.0,-100.00,SE,140,12.0,18.0,70,0.00,,,-99.99,,2013-03-18 04:03:00,
2013-03-17 23:13:00,32.0,24.0,-100.00,SSE,150,11.0,20.0,70,0.00,,,-99.99,,2013-03-18 04:13:00,
2013-03-17 23:22:00,32.0,24.0,-100.00,SSE,150,14.0,19.0,71,0.00,,,-99.99,,2013-03-18 04:22:00,
2013-03-17 23:33:00,32.0,24.0,-100.00,SE,140,12.0,17.0,71,0.00,,,-99.99,,2013-03-18 04:33:00,
2013-03-17 23:42:00,32.0,24.0,-100.00,SE,140,12.0,17.0,71,0.00,,,-99.99,,2013-03-18 04:42:00,
2013-03-17 23:52:00,32.0,24.0,-100.00,SSE,150,13.0,19.0,71,0.00,,,-99.99,,2013-03-18 04:52:00,